This demonstration page uses our WeatherBlox Daily Observations layout. Learn more.

Left ArrowRight Arrow

Hourly Observations for May 19, 2021

Temp ( °F °C ) Dew Point ( °F °C ) Humidity (%) Winds ( mph kmh ) Pressure ( in mb ) Visibility ( mi km ) Precip ( " mm )
12:15 am 00:15 Clear 63 17.4 59 14.8 85 85 N N/A 29.86 1011 10 16 N/A
12:35 am 00:35 Clear 63 17.1 59 14.8 86 86 S 3 6 29.86 1011 10 16 N/A
12:55 am 00:55 Clear 62 16.6 58 14.5 88 88 N N/A 29.86 1011 10 16 N/A
1:15 am 01:15 Clear 61 16.3 58 14.5 89 89 N N/A 29.85 1011 10 16 N/A
1:35 am 01:35 Clear 61 16.2 57 14.1 87 87 N N/A 29.85 1011 10 16 N/A
1:55 am 01:55 Clear 60 15.4 58 14.4 94 94 N N/A 29.86 1011 10 16 N/A
2:15 am 02:15 Clear 59 14.9 57 13.9 94 94 N N/A 29.85 1011 10 16 N/A
2:35 am 02:35 Clear 60 15.8 57 14 89 89 N N/A 29.84 1011 10 16 N/A
2:55 am 02:55 Clear 58 14.6 56 13.3 92 92 N N/A 29.85 1011 10 16 N/A
3:15 am 03:15 Clear 58 14.6 56 13.5 93 93 N N/A 29.85 1011 10 16 N/A
3:35 am 03:35 Clear 59 15 57 13.8 93 93 S 3 6 29.85 1011 10 16 N/A
3:55 am 03:55 Clear 59 14.9 56 13.5 91 91 S 3 6 29.86 1011 10 16 N/A
4:15 am 04:15 Clear 58 14.5 56 13.5 94 94 S 3 6 29.86 1011 10 16 N/A
4:35 am 04:35 Clear 57 14.1 55 13 93 93 SSE 6 9 29.86 1011 10 16 N/A
4:55 am 04:55 Clear 57 13.7 55 12.6 93 93 N N/A 29.87 1012 10 16 N/A
5:15 am 05:15 Partly Cloudy 57 14 56 13.1 94 94 SW 5 7 29.87 1011 10 16 N/A
5:35 am 05:35 Cloudy 58 14.3 55 12.9 91 91 SW 5 7 29.88 1012 10 16 N/A
5:55 am 05:55 Cloudy 58 14.2 55 12.7 91 91 SSW 3 6 29.88 1012 10 16 N/A
6:15 am 06:15 Cloudy 58 14.3 55 13 92 92 N N/A 29.88 1012 10 16 N/A
6:35 am 06:35 Cloudy 58 14.6 55 13 90 90 SW 3 6 29.87 1012 10 16 N/A
6:55 am 06:55 Cloudy 59 14.8 55 13 89 89 N N/A 29.88 1012 10 16 N/A
7:15 am 07:15 Cloudy 59 15 55 13 88 88 N N/A 29.89 1012 10 16 N/A
7:35 am 07:35 Cloudy 59 15 56 13.5 91 91 N N/A 29.89 1012 10 16 N/A
7:55 am 07:55 Cloudy 60 15.6 57 13.7 89 89 N N/A 29.88 1012 10 16 N/A
8:15 am 08:15 Cloudy 61 16 57 13.8 87 87 N N/A 29.88 1012 10 16 N/A
8:35 am 08:35 Cloudy 61 16.3 57 14 86 86 SE 3 6 29.88 1012 10 16 N/A
8:55 am 08:55 Cloudy 62 16.5 59 14.9 90 90 ESE 6 9 29.88 1012 10 16 N/A
9:15 am 09:15 Cloudy 62 16.7 59 15 90 90 SE 6 9 29.87 1012 10 16 N/A
9:35 am 09:35 Cloudy 64 17.6 60 15.3 86 86 SE 6 9 29.88 1012 10 16 N/A
9:55 am 09:55 Cloudy 64 18 59 15 83 83 SSE 5 7 29.87 1012 10 16 N/A
10:15 am 10:15 Mostly Cloudy 65 18.5 58 14.6 78 78 ESE 5 7 29.86 1011 10 16 N/A
10:35 am 10:35 Partly Cloudy 66 18.9 59 15 78 78 SE 6 9 29.86 1011 10 16 N/A
10:55 am 10:55 Mostly Cloudy 67 19.3 60 15.7 80 80 SE 8 13 29.85 1011 10 16 N/A
11:15 am 11:15 Mostly Cloudy 67 19.5 60 15.5 78 78 S 8 13 29.85 1011 10 16 N/A
11:35 am 11:35 Mostly Cloudy 69 20.4 61 15.9 76 76 S 8 13 29.84 1011 10 16 N/A
11:55 am 11:55 Partly Cloudy 70 20.9 59 15.2 70 70 SSE 7 11 29.84 1010 10 16 N/A
12:15 pm 12:15 Partly Cloudy 70 21.1 60 15.3 70 70 S 9 15 29.83 1010 10 16 N/A
12:35 pm 12:35 Partly Cloudy 71 21.4 58 14.7 66 66 SSE 7 11 29.83 1010 10 16 N/A
12:55 pm 12:55 Partly Cloudy 71 21.7 59 15 66 66 SSE 7 11 29.82 1010 10 16 N/A
1:15 pm 13:15 Partly Cloudy 71 21.6 58 14.6 65 65 S 6 9 29.82 1010 10 16 N/A
1:35 pm 13:35 Partly Cloudy 71 21.7 58 14.5 64 64 SSE 6 9 29.81 1010 10 16 N/A
1:55 pm 13:55 Mostly Cloudy 71 21.9 58 14.6 63 63 S 9 15 29.81 1010 10 16 N/A
2:15 pm 14:15 Mostly Cloudy 73 22.5 58 14.6 61 61 S 12 19 29.82 1010 10 16 N/A
2:35 pm 14:35 Partly Cloudy 72 22.2 59 14.9 63 63 S 13 20 29.82 1010 10 16 N/A
2:55 pm 14:55 Partly Cloudy 72 22.2 59 15 64 64 S 12 19 29.82 1010 10 16 N/A
3:15 pm 15:15 Partly Cloudy 72 22.1 59 15 64 64 SSE 15 24 29.81 1009 10 16 N/A
3:35 pm 15:35 Mostly Cloudy 71 21.6 59 15 66 66 SE 16 26 29.81 1010 10 16 N/A
3:55 pm 15:55 Mostly Cloudy 71 21.9 59 14.9 65 65 SSE 13 20 29.81 1010 10 16 N/A
4:15 pm 16:15 Mostly Cloudy 71 21.6 59 15 66 66 SSE 10 17 29.81 1010 10 16 N/A
4:35 pm 16:35 Mostly Cloudy 71 21.6 58 14.7 65 65 S 14 22 29.81 1010 10 16 N/A
4:55 pm 16:55 Mostly Cloudy 71 21.5 59 15 67 67 SSE 13 20 29.82 1010 10 16 N/A
5:15 pm 17:15 Partly Cloudy 70 21.3 58 14.6 66 66 SSE 14 22 29.82 1010 10 16 N/A
5:35 pm 17:35 Partly Cloudy 70 21.1 58 14.5 66 66 SSE 14 22 29.82 1010 10 16 N/A
5:55 pm 17:55 Partly Cloudy 70 21 58 14.5 67 67 S 13 20 29.82 1010 10 16 N/A
6:15 pm 18:15 Sunny 69 20.8 58 14.2 66 66 S 14 22 29.82 1010 10 16 N/A
6:35 pm 18:35 Sunny 70 21 58 14.5 67 67 S 10 17 29.82 1010 10 16 N/A
6:55 pm 18:55 Sunny 71 21.9 59 14.8 64 64 S 13 20 29.81 1010 10 16 N/A
7:15 pm 19:15 Partly Cloudy 71 21.8 59 15 65 65 S 14 22 29.80 1009 10 16 N/A
7:35 pm 19:35 Sunny 71 21.5 58 14.5 65 65 SSE 13 20 29.81 1009 10 16 N/A
7:55 pm 19:55 Sunny 70 21.2 59 14.8 67 67 S 13 20 29.81 1009 10 16 N/A
8:15 pm 20:15 Sunny 69 20.5 59 15 71 71 SSE 7 11 29.82 1010 10 16 N/A
8:35 pm 20:35 Sunny 67 19.3 59 15.2 77 77 SSE 6 9 29.84 1011 10 16 N/A
8:55 pm 20:55 Clear 65 18.5 59 15.2 81 81 SSE 7 11 29.85 1011 10 16 N/A
9:15 pm 21:15 Clear 64 18 59 15.2 84 84 SE 8 13 29.85 1011 10 16 N/A
9:35 pm 21:35 Clear 64 17.8 60 15.5 86 86 SE 8 13 29.86 1011 10 16 N/A
9:55 pm 21:55 Clear 64 17.8 60 15.4 86 86 SSE 9 15 29.87 1011 10 16 N/A
10:15 pm 22:15 Clear 63 17.4 60 15.3 88 88 SSE 9 15 29.87 1011 10 16 N/A
10:35 pm 22:35 Clear 63 17.1 60 15.4 90 90 SSE 9 15 29.88 1012 10 16 N/A
10:55 pm 22:55 Clear 62 16.6 59 15.2 92 92 SSE 9 15 29.90 1012 10 16 N/A
11:15 pm 23:15 Clear 62 16.5 60 15.3 93 93 SSE 9 15 29.89 1012 10 16 N/A
11:35 pm 23:35 Clear 62 16.5 60 15.4 93 93 SSE 10 17 29.89 1012 10 16 N/A
11:55 pm 23:55 Partly Cloudy 62 16.5 60 15.5 94 94 SSE 9 15 29.89 1012 10 16 N/A

Powered by AerisWeather